This is the latest recevied weather packets stored in our database for station/object YO3FVR-13. If no packets are shown the sender has not sent any weather packets the latest 10 day(s).
| Time | Temp. | Humidity | Pressure | Rain* | Wind** | Luminosity | Snow |
|---|---|---|---|---|---|---|---|
| 1778218072 | 13.89° C | 99% | 1013.3 hPa | 0 mm | - | - | - |
| 1778217172 | 13.33° C | 99% | 1013.4 hPa | 0 mm | - | - | - |
| 1778216272 | 12.78° C | 99% | 1013.4 hPa | 0 mm | - | - | - |
| 1778215342 | 13.33° C | 99% | 1013.1 hPa | 0 mm | - | - | - |
| 1778214442 | 13.33° C | 99% | 1013.1 hPa | 0 mm | - | - | - |
| 1778213512 | 12.78° C | 99% | 1012.9 hPa | 0 mm | - | - | - |
| 1778212582 | 12.78° C | 99% | 1012.7 hPa | 0 mm | - | - | - |
| 1778211682 | 12.78° C | 99% | 1012.7 hPa | 0 mm | - | - | - |
| 1778210752 | 12.78° C | 99% | 1012.6 hPa | 0 mm | - | - | - |
| 1778209852 | 12.22° C | 99% | 1012.5 hPa | 0 mm | - | - | - |
| 1778208922 | 12.22° C | 99% | 1012.4 hPa | 0 mm | - | - | - |
| 1778208022 | 12.22° C | 99% | 1012.3 hPa | 0 mm | - | - | - |
| 1778207092 | 12.78° C | 99% | 1012.3 hPa | 0 mm | - | - | - |
| 1778206192 | 12.22° C | 99% | 1012.7 hPa | 0 mm | - | - | - |
| 1778205292 | 12.78° C | 99% | 1012.4 hPa | 0 mm | - | - | - |
| 1778204362 | 12.78° C | 99% | 1012.9 hPa | 0 mm | - | - | - |
| 1778203462 | 12.78° C | 99% | 1012.6 hPa | 0 mm | - | - | - |
| 1778202532 | 12.78° C | 99% | 1012.5 hPa | 0 mm | - | - | - |
| 1778201632 | 12.78° C | 99% | 1012.6 hPa | 0 mm | - | - | - |
| 1778200732 | 12.78° C | 99% | 1012.7 hPa | 0 mm | - | - | - |
| 1778199802 | 13.33° C | 99% | 1012.9 hPa | 0 mm | - | - | - |
| 1778198902 | 13.33° C | 99% | 1012.8 hPa | 0 mm | - | - | - |
| 1778198002 | 13.33° C | 99% | 1012.9 hPa | 0 mm | - | - | - |
| 1778197072 | 13.33° C | 99% | 1013.1 hPa | 0 mm | - | - | - |
| 1778196172 | 13.33° C | 99% | 1013.1 hPa | 0 mm | - | - | - |
* Rain latest hour (hover to see other rain measurements)
** Current wind speed in m/s (hover to see current wind gust speed)